User: anonymous   Login
Location: Seasalter
(51.3333°N, 1.0167°E)
Time: 03:02:57
(UTC+00:00)
Language:

Cosmos 2322 Rocket - Orbit

View from above orbital plane
View from above orbital plane
View from above satellite
View from above satellite

Ground track
Ground track

The orbit data is extracted from the following two-line orbital elements,

1 23705U 95058B   24062.03086591  .00000176  00000-0  11450-3 0  9998
2 23705  71.0209 288.7468 0012231 173.5344 186.5939 14.15288059463475
Epoch (UTC): 02 March 2024 00:44:26
Eccentricity: 0.0012231
inclination: 71.0209°
perigee height: 832 km
apogee height: 850 km
right ascension of ascending node: 288.7468°
argument of perigee: 173.5344°
revolutions per day: 14.15288059
mean anomaly at epoch: 186.5939°
orbit number at epoch: 46347

The dashed part of the orbit path shows where the satellite is in the earth's shadow,  

DLR